Rechercher aéroport 
image banner adimage banner adimage banner ad
image banner ad

SVLK - La Vieja

Situé à Anzoategui, Venezuela

ICAO - SVLK, IATA -

Données fournies par Airmate  

Information générale

Coordonnées: N9°41'0" W64°11'0"
Élévation : 296 feet MSL.
 
Voir autres Aéroports à Apure

Données opérationnelles

Special qualification required
Heure actuelle UTC:
Heure actuelle locale:
TAF: TAF SVBC 240400Z 2406/2506 05006KT 9999 SCT010 TX35/2406Z TN23/2408Z BECMG 2404/2410 22008KT 9999 BKN010
Voir NOTAMs / SUP AIP / TFR affectant cet aéroport [VIEW]
Fréquences de communication: [VIEW]

Pistes:

Identifiant RWYQFULongueur (ft)Largeur (ft)SurfaceLDA (ft)
1000
2800

Coordonnées de l'aéroport

Adresse: Anzoategui Venezuela

Vue satellite de SVLK